RH
4 3 5 12 12 19 19 38 44 48 46 43 41 42 50 56 64 74 85 86 63 44 58 66 49 38 38 38 41 41 36 24 17 19 19 18 17 16 16 16 16 15 14 14 13 14 16 16 16
4 3 8 11 16 25 36 45 44 44 44 44 48 52 46 48 27 49 79 52 44 47 61 66 53 40 44 44 46 43 24 20 21 20 19 19 18 16 17 17 13 5 7 9 10 12 12 11 10
2 5 11 18 23 22 33 44 40 38 42 37 43 54 49 44 67 38 72 25 30 35 54 69 64 48 44 37 21 15 17 22 21 21 19 11 9 14 11 4 4 3 3 4 9 11 9 9 11
3 9 18 21 18 29 42 46 42 41 43 42 42 48 67 71 55 47 47 27 24 32 49 52 50 36 20 14 16 21 22 21 20 12 5 5 8 8 3 5 8 11 12 11 8 4 4 3 4
9 13 18 20 29 41 40 38 40 44 44 45 48 67 70 64 41 32 22 25 27 28 28 19 14 14 15 20 17 17 19 9 5 3 4 6 7 6 7 13 16 17 18 18 17 18 18 18 15
15 19 20 21 44 36 36 39 39 45 44 52 49 56 71 55 32 27 26 22 18 16 14 14 16 21 18 13 16 10 3 3 3 3 5 8 10 12 15 18 20 21 22 22 22 22 22 22 22
15 24 23 25 35 37 37 34 30 38 36 54 56 55 64 46 29 27 24 17 17 17 16 20 25 22 15 11 4 2 2 2 3 7 10 15 19 23 24 26 27 28 29 29 29 29 28 27 27
21 20 27 27 29 32 31 28 28 30 35 39 48 54 56 44 25 25 23 22 19 20 26 30 28 19 8 3 3 5 11 16 23 26 28 30 31 31 33 32 32 33 30 30 30 30 31 33 34
19 18 16 24 24 26 24 26 26 28 33 32 34 41 42 30 26 27 26 22 22 25 29 29 26 13 4 6 11 15 22 28 31 31 33 32 31 30 33 31 29 28 27 27 27 26 26 26 28
17 15 13 14 17 15 12 13 13 19 26 29 30 46 55 52 33 24 24 22 24 25 24 24 22 14 7 15 19 26 31 30 33 35 36 38 38 40 38 33 29 27 25 24 24 26 26 25 26
14 12 11 11 11 11 12 12 18 24 19 18 17 42 45 26 13 12 18 18 37 38 34 29 25 11 15 18 25 27 33 33 36 41 41 42 45 46 37 33 30 28 26 24 23 25 23 22 22
14 13 13 11 8 9 9 11 14 15 15 20 22 26 28 37 14 13 30 70 74 59 73 74 55 17 22 27 36 35 38 40 39 40 41 43 44 49 42 38 35 32 30 26 25 24 25 28 28
15 14 13 12 7 10 11 13 16 16 18 23 27 36 40 46 50 50 78 85 84 78 80 70 67 62 30 36 39 38 38 40 40 42 43 44 45 47 49 47 44 38 37 32 31 36 38 36 33
14 14 14 9 6 5 11 15 18 15 16 18 32 37 44 50 57 72 56 84 80 82 87 81 87 75 50 36 39 38 39 42 42 43 45 47 48 51 56 54 48 45 42 41 42 42 41 37 33
16 17 20 18 18 20 15 21 20 21 16 20 21 28 43 48 54 67 65 58 72 82 82 75 85 66 70 58 40 37 38 41 47 48 48 48 54 54 62 60 54 52 52 53 54 49 42 39 38
13 19 20 21 23 22 18 16 21 21 22 20 22 23 29 39 49 51 57 58 70 71 81 87 86 77 78 76 70 49 37 43 50 56 55 61 62 59 65 66 66 66 67 63 67 64 43 41 36
18 19 20 22 22 24 22 22 23 22 23 24 24 25 24 27 46 51 50 57 58 74 74 88 83 69 67 78 84 66 46 54 56 56 70 78 73 64 69 71 69 69 73 75 74 74 58 44 38
19 16 20 24 22 23 20 20 22 25 27 28 26 24 26 26 47 54 59 62 66 71 77 79 77 61 76 82 72 56 52 57 61 65 68 68 69 66 68 85 86 82 80 80 61 56 58 48 42
18 18 21 24 23 21 19 21 26 28 29 30 28 31 27 28 36 50 57 60 68 77 78 77 66 73 72 76 60 55 62 70 71 74 74 82 77 75 81 82 71 63 53 48 44 46 48 45 45
19 20 25 25 29 17 24 25 27 29 28 33 32 32 33 30 32 50 56 61 65 61 62 70 59 53 60 59 61 62 68 79 78 84 77 72 85 93 89 63 55 54 52 48 48 49 48 48 50
26 22 30 29 30 18 26 30 30 35 34 36 37 38 41 40 41 48 54 51 57 62 50 41 46 56 57 59 61 64 68 68 66 68 83 94 92 71 56 55 52 60 61 62 61 62 58 49 50
33 31 29 26 23 27 26 35 34 36 38 42 46 47 46 43 41 42 46 41 40 42 46 52 55 55 58 63 64 65 67 70 73 77 78 68 60 63 60 59 57 57 66 61 57 51 43 41 36
39 30 21 17 29 31 27 28 37 40 46 46 47 50 47 46 43 45 43 46 46 49 53 56 57 50 43 39 42 55 59 59 62 64 61 69 74 74 60 58 59 57 52 47 39 29 19 14 11
38 39 37 38 39 44 37 35 40 46 48 53 56 51 57 60 63 59 54 52 52 54 50 45 48 49 63 66 59 52 54 58 61 69 73 69 73 66 54 55 52 39 25 14 9 7 7 8 9
35 40 46 57 67 65 42 41 54 54 51 51 55 64 66 68 66 65 69 78 75 70 72 61 54 55 49 55 59 75 79 82 92 87 79 69 53 52 53 32 14 10 8 7 7 7 13 17 33
42 43 43 64 82 56 23 46 57 49 55 63 68 64 67 73 75 82 87 94 99 99 97 82 69 67 61 67 70 65 77 78 85 93 91 68 54 44 18 12 13 10 8 7 9 16 38 65 76
47 28 38 47 50 54 43 56 56 54 56 64 60 66 75 69 82 88 82 81 81 86 93 90 76 74 81 88 92 90 100 100 100 96 82 54 37 18 17 17 13 10 10 13 31 50 70 72 88
40 32 46 43 63 54 39 53 55 58 60 61 64 63 68 63 68 75 76 81 80 79 74 71 71 76 98 93 72 78 93 100 95 83 59 36 28 25 21 17 13 12 16 40 60 83 71 78 95
49 47 45 40 42 63 78 46 46 57 60 60 57 61 64 67 71 70 65 62 68 85 73 61 61 71 56 52 55 72 62 50 55 62 50 43 44 40 31 16 13 14 31 58 51 33 22 18 18
26 45 47 46 50 55 56 48 43 47 53 65 68 67 68 71 69 67 70 70 67 66 66 53 37 30 33 34 21 27 70 83 97 71 69 62 64 47 19 16 17 29 58 51 22 18 16 16 22
Wind_Speed
7 12 15 14 7 6 7 9 12 4 18 11 10 4 8 10 8 8 12 11 8 10 15 15 13 13 9 5 4 4 3 3 4 7 10 13 15 17 18 17 17 16 17 18 18 17 17 17 18
9 13 15 12 3 3 7 11 16 14 19 13 11 8 1 6 6 10 16 9 6 12 15 15 14 13 8 6 6 5 4 5 8 11 14 15 16 15 13 11 11 13 14 14 14 14 14 16 17
12 15 15 5 5 11 10 11 18 20 9 5 5 4 3 2 2 6 11 8 10 10 12 13 13 11 7 6 4 5 7 10 12 14 14 12 10 9 8 10 12 15 17 17 15 13 13 13 13
16 18 10 7 3 2 24 15 9 14 13 4 2 4 9 2 3 4 7 4 9 11 11 11 9 6 5 5 7 9 12 12 12 10 7 8 8 8 9 12 14 16 17 17 17 17 18 17 15
21 19 7 2 5 13 15 10 11 13 8 4 4 8 3 3 4 7 5 7 8 9 10 8 6 4 6 9 11 10 9 8 5 5 7 8 9 10 12 15 16 17 17 17 18 18 19 19 18
22 11 5 9 18 16 19 13 7 6 10 2 1 2 0 6 4 9 6 8 8 5 5 4 4 5 9 10 7 5 5 3 4 8 9 10 11 13 15 16 17 17 18 18 19 19 20 20 18
15 4 8 5 9 10 13 14 10 15 16 8 4 2 2 3 8 9 8 7 5 4 4 4 6 8 8 4 2 3 2 5 7 9 10 12 13 13 16 17 19 20 21 21 21 22 22 22 22
6 6 2 3 4 13 9 11 9 11 17 12 3 5 6 6 7 7 6 7 7 6 7 7 7 7 4 2 3 3 4 6 7 9 11 13 14 13 12 15 17 19 22 23 24 25 25 24 24
3 11 13 16 17 15 8 11 6 7 10 12 10 5 6 4 7 8 8 8 10 10 11 7 7 4 4 4 4 5 5 5 8 10 11 12 13 15 17 17 19 21 22 24 25 26 27 25 25
5 9 11 16 13 8 10 5 3 9 3 9 12 9 7 6 6 8 10 11 12 12 12 9 8 7 3 3 5 4 3 6 7 10 11 16 20 21 22 24 25 24 25 26 26 25 24 23 21
7 9 8 18 17 8 9 7 7 8 6 5 2 13 9 6 8 10 11 10 5 9 8 5 6 7 6 7 4 3 5 8 9 12 18 20 20 22 23 24 24 24 25 23 24 24 23 22 22
8 6 3 6 8 10 5 3 12 1 10 6 5 5 4 2 4 4 2 2 6 13 14 11 14 9 7 6 6 8 10 13 15 17 19 21 22 24 24 25 26 26 25 24 23 22 22 23 24
5 3 4 6 7 15 12 7 7 5 7 7 6 4 8 7 6 7 4 6 9 10 13 18 16 15 10 7 7 9 10 13 17 18 21 24 25 26 24 25 25 23 23 22 21 23 25 26 27
7 3 3 7 9 14 12 8 8 8 7 6 6 5 7 7 7 1 3 9 11 12 17 17 16 11 12 11 9 12 13 16 20 21 22 24 26 24 24 25 23 22 23 23 25 27 29 29 27
7 6 4 9 3 4 13 11 8 12 12 7 9 7 7 6 2 6 5 5 11 14 17 22 25 4 7 15 16 14 17 20 23 25 24 24 29 28 29 26 24 26 28 28 29 30 31 32 31
8 12 12 9 7 4 2 10 12 15 10 9 7 5 5 10 10 8 11 11 14 16 18 24 31 26 9 11 20 23 23 21 24 27 31 34 35 32 32 32 32 35 35 34 36 36 38 36 36
11 12 13 14 8 4 3 8 19 15 4 3 7 9 7 8 14 13 13 12 13 18 18 18 25 23 25 19 22 22 23 22 25 28 31 36 37 35 34 35 39 42 43 43 43 41 44 40 38
4 10 21 16 13 10 6 3 13 11 10 10 11 11 11 16 19 20 18 18 17 19 21 23 25 23 22 22 25 27 28 31 30 32 41 42 41 42 41 44 48 50 50 47 44 42 40 40 41
3 8 20 15 11 5 5 2 11 7 6 6 9 8 20 24 23 27 25 21 21 22 21 24 22 24 25 28 27 27 31 32 35 43 39 36 39 38 48 47 49 51 45 43 40 42 43 43 41
3 4 12 8 6 2 7 5 8 9 7 9 11 12 14 23 23 26 26 22 24 25 26 27 23 22 26 26 27 29 31 32 33 31 35 38 43 50 51 45 45 47 46 43 40 41 44 45 44
6 3 2 1 2 2 5 9 12 12 13 14 13 13 14 18 21 23 26 26 22 19 18 17 15 17 22 26 28 31 33 34 36 34 34 43 49 48 47 47 47 45 47 47 46 45 46 48 46
1 3 6 7 4 4 6 5 14 14 17 15 16 15 18 21 25 25 20 16 11 12 15 19 20 22 25 27 29 32 33 33 34 39 44 45 43 49 50 50 50 50 47 47 47 47 47 47 48
2 7 7 7 7 8 4 7 19 18 16 14 13 10 13 16 16 14 14 13 14 16 20 23 26 28 28 29 31 33 36 38 40 42 43 49 49 47 47 47 46 45 45 46 47 48 49 50 50
7 8 6 6 6 3 9 6 18 18 16 15 13 11 11 10 11 13 17 17 17 20 24 24 22 25 27 32 38 41 41 42 44 46 48 48 46 46 46 45 45 47 48 48 47 48 49 49 47
7 9 1 1 1 3 5 9 3 17 16 15 13 12 10 8 10 14 17 18 22 23 28 34 34 33 33 35 41 41 43 47 49 51 50 47 45 45 44 44 44 45 46 48 50 50 47 48 42
10 7 5 1 1 5 8 8 12 16 19 14 10 4 4 8 11 8 8 12 14 15 21 35 38 40 42 41 47 44 47 53 54 56 53 48 46 45 44 44 47 49 50 49 48 45 42 39 38
6 8 7 3 4 3 6 16 7 5 6 6 3 3 5 4 1 7 12 18 22 26 30 34 39 42 44 44 50 45 47 52 59 54 51 48 47 44 44 46 48 47 46 45 41 40 39 40 41
9 6 4 3 1 2 2 7 2 10 12 10 6 5 7 12 14 12 14 19 26 32 36 39 42 42 44 49 46 45 47 54 53 50 48 46 46 46 46 46 47 46 44 41 38 35 37 38 37
4 1 3 1 0 4 1 3 6 5 6 7 8 8 12 14 17 21 25 27 29 29 36 37 38 41 44 46 43 42 44 46 48 39 40 43 43 49 49 47 49 48 45 41 37 35 34 34 34
1 1 1 1 2 3 1 9 9 9 10 6 9 10 13 17 21 25 26 28 32 37 37 41 41 42 42 40 41 44 38 49 39 42 48 43 41 43 44 48 47 44 40 36 34 34 35 34 33
Wind_Direction
186 183 186 183 199 244 302 37 164 121 84 78 50 103 86 96 154 163 173 205 154 190 183 187 189 189 191 214 257 271 273 264 282 288 295 293 296 298 298 301 306 310 311 307 302 298 297 296 293
191 184 178 188 264 233 58 83 90 107 114 113 86 70 107 77 50 142 172 192 183 165 177 187 193 193 207 240 274 262 258 281 295 299 298 304 308 311 313 317 326 334 339 338 327 319 315 308 301
185 178 178 165 187 244 186 140 105 91 89 121 73 48 80 273 82 122 177 165 152 172 178 187 197 206 236 264 260 271 281 292 296 301 309 315 324 332 342 352 352 352 355 358 353 351 348 344 337
192 178 169 206 211 5 144 124 112 123 83 57 185 41 116 239 298 255 176 183 146 162 165 174 188 215 237 258 274 284 291 300 310 320 331 342 341 345 354 352 349 349 349 348 345 342 342 345 343
178 184 211 304 20 106 131 122 126 108 115 113 108 138 175 287 280 202 177 133 142 155 163 173 184 218 261 278 289 302 313 321 337 348 344 351 347 348 344 341 341 339 339 337 333 332 331 332 330
181 175 265 305 123 125 113 112 123 98 152 80 37 174 141 6 206 191 142 147 150 165 177 193 229 272 295 307 319 328 335 336 324 333 341 341 340 343 335 331 331 330 330 327 325 323 321 318 317
162 213 328 331 181 134 123 119 92 101 118 121 114 251 233 328 174 180 150 159 180 202 223 247 279 306 317 311 318 309 306 322 337 337 334 333 338 341 334 330 331 331 328 325 322 319 315 314 313
194 305 34 125 189 125 144 110 109 123 127 107 81 248 232 346 170 181 193 203 211 226 247 263 292 313 298 295 273 314 338 341 343 333 343 357 344 349 341 335 337 334 330 330 326 323 319 320 315
235 281 277 232 195 169 181 158 156 103 161 187 216 241 287 156 191 199 225 232 250 243 253 269 297 276 280 275 312 338 341 11 11 351 347 344 341 347 344 343 338 334 330 328 323 320 317 318 318
263 320 90 106 146 144 129 177 170 217 205 242 215 200 229 232 238 227 234 248 259 279 290 295 295 271 269 285 327 336 358 14 8 355 350 347 345 341 338 340 339 335 333 330 328 324 323 324 327
44 139 107 103 107 106 136 149 122 159 235 231 265 206 216 229 227 233 236 257 328 330 305 333 249 274 298 303 310 322 344 355 358 351 351 342 339 337 336 337 334 333 332 331 326 326 328 332 336
137 98 79 110 116 113 152 186 143 250 239 213 293 298 325 273 227 217 199 326 351 333 312 318 329 288 285 301 315 339 344 337 339 336 332 334 333 333 333 334 334 333 333 332 328 327 330 331 329
160 177 212 236 173 155 151 183 136 162 156 138 217 246 317 10 39 46 110 241 279 287 292 304 321 318 275 269 280 298 315 316 318 319 323 327 324 321 328 331 329 328 326 322 315 315 317 319 318
188 189 256 136 166 188 194 187 191 194 216 230 202 277 311 352 23 11 72 224 264 275 275 300 296 295 272 268 269 284 298 302 308 310 316 316 314 313 317 320 318 312 312 313 312 313 313 311 311
141 162 173 161 211 111 173 186 222 186 201 197 207 242 262 291 296 259 275 283 257 265 261 290 278 237 243 275 289 293 295 306 306 304 306 306 311 307 311 310 310 309 311 311 311 310 307 303 300
175 199 196 183 208 196 257 214 203 204 216 210 239 251 211 247 250 259 257 280 236 265 267 270 270 309 238 279 294 300 305 300 303 303 310 314 310 303 306 308 308 308 308 308 305 304 306 299 294
209 233 223 177 197 186 342 10 185 197 194 177 254 250 210 214 233 231 255 254 255 239 257 263 281 288 306 314 293 309 308 299 295 300 310 301 301 302 305 299 299 299 301 303 299 294 302 296 295
272 350 224 177 174 202 214 171 156 158 189 232 231 231 210 211 198 196 199 206 210 222 237 253 271 286 303 301 301 307 308 303 301 299 302 301 298 299 301 303 300 300 299 300 293 296 296 293 295
75 34 132 146 161 169 266 241 174 174 127 137 174 204 201 201 200 202 206 221 210 217 246 259 289 298 290 293 304 309 306 300 301 300 294 290 294 293 303 301 306 309 306 299 299 299 296 294 292
83 344 101 90 33 317 162 213 194 177 172 151 193 200 187 197 208 210 217 225 236 255 264 268 278 284 289 296 303 305 298 290 288 280 283 292 299 300 306 305 304 303 302 300 298 296 295 295 293
167 218 203 227 271 265 213 156 169 159 165 167 182 202 205 211 215 219 233 255 268 264 261 264 271 290 300 300 296 289 285 284 288 289 288 289 299 303 304 304 304 303 303 304 303 301 299 300 298
49 221 280 279 296 267 248 84 165 167 168 158 169 199 221 229 236 238 262 275 257 258 270 279 291 298 297 288 286 288 290 288 289 292 296 302 302 301 302 303 304 304 304 303 305 305 303 301 298
293 310 306 286 244 279 228 251 162 157 144 170 196 203 236 251 272 287 279 266 269 282 288 298 301 299 297 295 293 289 293 297 300 303 301 303 305 308 309 305 304 303 303 302 300 299 300 299 299
37 347 318 311 275 277 333 266 158 158 181 172 201 232 237 250 273 300 301 295 295 296 299 304 310 323 320 315 313 312 314 311 307 306 306 305 303 304 305 303 301 302 303 304 304 302 301 300 297
15 31 31 319 349 222 351 47 171 190 200 214 209 221 248 294 338 337 331 327 322 319 317 324 326 323 316 319 321 311 311 311 308 308 309 305 305 306 303 304 305 306 307 308 309 307 306 304 299
40 27 74 77 59 302 326 111 124 151 160 160 165 277 292 351 339 328 331 323 313 301 297 308 316 317 316 311 316 313 309 310 308 305 303 303 307 305 306 308 310 311 310 308 306 305 304 300 297
41 48 63 63 20 314 99 109 109 174 172 209 305 119 68 26 291 308 291 291 297 292 297 306 311 311 315 309 310 307 301 299 302 301 300 302 303 304 307 308 309 308 307 307 304 300 295 294 291
62 90 84 60 90 303 31 139 183 177 174 171 139 210 252 263 251 268 283 283 286 289 297 302 309 310 305 302 303 302 300 297 300 299 303 308 307 306 307 308 309 312 312 309 306 300 298 294 293
110 69 77 312 358 154 355 81 60 161 152 151 233 261 263 261 259 270 290 300 297 294 303 307 308 304 302 302 306 304 303 303 305 308 315 314 315 314 306 313 315 316 315 310 307 303 299 297 297
340 238 170 188 301 82 340 278 300 233 213 225 253 273 280 282 285 292 297 299 301 306 316 313 311 307 306 308 312 318 315 321 305 313 319 311 308 313 320 321 319 315 311 304 302 301 302 302 300